This demonstration page uses our WeatherBlox Daily Observations layout. Learn more.

Left ArrowRight Arrow

41.86663, -103.66717

Hourly Observations for July 9, 2020

Temp ( °F °C ) Dew Point ( °F °C ) Humidity (%) Winds ( mph kmh ) Pressure ( in mb ) Visibility ( mi km ) Precip ( " mm )
12:53 am 00:53 Clear 70 21.1 45 7.2 41 41 E 10 17 29.74 1007 10 16.0934 0 0
1:53 am 01:53 Clear 62 16.7 49 9.4 62 62 E 5 7 29.76 1008 10 16.0934 0 0
2:53 am 02:53 Clear 62 16.7 50 10 65 65 ESE 8 13 29.79 1009 10 16.0934 0 0
3:53 am 03:53 Clear 61 16.1 54 12.2 78 78 Calm 29.82 1010 10 16.0934 0 0
4:53 am 04:53 Clear 59 15 54 12.2 83 83 S 5 7 29.83 1010 10 16.0934 0 0
5:53 am 05:53 Sunny 56 13.3 53 11.7 90 90 ENE 3 6 29.85 1011 10 16.0934 0 0
6:53 am 06:53 Sunny 62 16.7 55 12.8 78 78 ENE 7 11 29.86 1011 10 16.0934 0 0
7:53 am 07:53 Sunny 67 19.4 56 13.3 68 68 E 5 7 29.88 1012 10 16.0934 0 0
8:53 am 08:53 Sunny 69 20.6 57 13.9 66 66 VRB 3 6 29.91 1013 10 16.0934 0 0
9:53 am 09:53 Sunny 73 22.8 55 12.8 53 53 ESE 6 9 29.91 1013 10 16.0934 0 0
10:53 am 10:53 Sunny 78 25.6 56 13.3 47 47 S 7 11 29.91 1013 10 16.0934 0 0
11:53 am 11:53 Sunny 82 27.8 57 13.9 42 42 SSE 8 13 29.9 1012 10 16.0934 0 0
12:53 pm 12:53 Sunny 86 30 58 14.4 39 39 SE 9 15 29.85 1011 10 16.0934 0 0
1:53 pm 13:53 Sunny 87 30.6 59 15 39 39 SSE 8 13 29.85 1011 10 16.0934 0 0
2:53 pm 14:53 Sunny 90 32.2 57 13.9 33 33 undefined N/A 29.83 1010 10 16.0934 0 0
3:53 pm 15:53 Sunny 92 33.3 56 13.3 30 30 E 12 19 29.81 1010 10 16.0934 0 0
4:53 pm 16:53 Sunny 90 32.2 54 12.2 29 29 SE 9 15 29.83 1010 10 16.0934 0 0
5:53 pm 17:53 Mostly Sunny 90 32.2 37 2.8 15 15 SW 17 28 29.82 1010 10 16.0934 0 0
6:01 pm 18:01 Sunny 91 32.8 38 3.3 15 15 SW 13 20 29.6 1002 10 16.0934 0 0
6:53 pm 18:53 Sunny 88 31.1 41 5 19 19 undefined N/A 29.83 1010 10 16.0934 0 0
7:53 pm 19:53 Mostly Sunny 85 29.4 43 6.1 23 23 Calm 29.82 1010 10 16.0934 0 0
8:53 pm 20:53 Clear 74 23.3 57 13.9 56 56 ESE 9 15 29.87 1011 10 16.0934 0 0
9:53 pm 21:53 Clear 72 22.2 58 14.4 61 61 E 12 19 29.92 1013 10 16.0934 0 0
10:53 pm 22:53 Clear 66 18.9 54 12.2 65 65 ESE 13 20 29.94 1014 10 16.0934 0 0
11:53 pm 23:53 Clear 64 17.8 53 11.7 68 68 ESE 14 22 29.97 1015 10 16.0934 0 0

Powered by AerisWeather